Change the Weather History Date:

Monday, June 10, 2013

  Actual Average Record
Temperature  
Mean Temperature 72 °F -  
Max Temperature 79 °F 78 °F 93 °F (1999)
Min Temperature 66 °F 55 °F 43 °F (1972)
Cooling Degree Days 6    
Growing Degree Days 22 (Base 50)    
Moisture  
Dew Point 64 °F    
Average Humidity 84    
Maximum Humidity 94    
Minimum Humidity 58    
Precipitation  
Precipitation 0.31 in - - ()
Sea Level Pressure  
Sea Level Pressure 29.79 in    
Wind  
Wind Speed 8 mph (SSW)    
Max Wind Speed 17 mph    
Max Gust Speed 22 mph    
Visibility 8 miles    
Events Rain , Thunderstorm    
Averages and records for this station are not official NWS values.
T = Trace of Precipitation, MM = Missing Value Source: NWS Daily Summary

Daily Weather History Graph

Daily Weather History Graph

Search for Another Location

Airport or City:

Trip Planner

Search our weather history database for the weather conditions in past years. The results will help you decide how hot, cold, wet, or windy it might be!

Date:

Astronomy

Jun. 10, 2013 Rise Set
Actual Time 6:02 AM EDT 9:06 PM EDT
Civil Twilight 5:28 AM EDT 9:39 PM EDT
Nautical Twilight 4:46 AM EDT 10:22 PM EDT
Astronomical Twilight 3:55 AM EDT 11:13 PM EDT
Moon 7:50 AM EDT (6/10) 10:31 PM EDT (6/10)
Length of Visible Light 16h 11m
Length of Day
15h 04m
Waxing Crescent, 4% of the Moon is Illuminated
Jun 10
Waxing Crescent
Jun 16
First Quarter
Jun 23
Full
Jun 30
Last Quarter
Jul 8
New

Hourly Weather History & Observations

Time (EDT) Temp. Dew Point Humidity Pressure Visibility Wind Dir Wind Speed Gust Speed Precip Events Conditions
12:53 AM 71.1 °F 63.0 °F 75% 29.89 in 10.0 mi SE 5.8 mph - N/A   Mostly Cloudy
1:53 AM 71.1 °F 63.0 °F 75% 29.88 in 10.0 mi SSE 8.1 mph - N/A   Overcast
2:53 AM 70.0 °F 63.0 °F 78% 29.85 in 10.0 mi SSE 9.2 mph - N/A   Overcast
3:53 AM 70.0 °F 63.0 °F 78% 29.83 in 10.0 mi SSE 11.5 mph - N/A   Overcast
4:53 AM 69.1 °F 63.0 °F 81% 29.81 in 10.0 mi SSE 9.2 mph - N/A   Overcast
5:53 AM 69.1 °F 64.0 °F 84% 29.80 in 10.0 mi SSE 6.9 mph - N/A   Overcast
6:26 AM 68.0 °F 64.4 °F 88% 29.83 in 7.0 mi SSE 8.1 mph - 0.00 in Rain Light Rain
6:50 AM 68.0 °F 64.4 °F 88% 29.83 in 6.0 mi SSE 8.1 mph - 0.01 in Rain Light Rain
6:53 AM 68.0 °F 64.0 °F 87% 29.81 in 6.0 mi SSE 8.1 mph - 0.01 in Rain Light Rain
7:11 AM 66.2 °F 64.4 °F 94% 29.83 in 4.0 mi SSE 8.1 mph - 0.01 in Rain Light Rain
7:35 AM 66.2 °F 64.4 °F 94% 29.83 in 4.0 mi SE 10.4 mph - 0.02 in Rain Light Rain
7:53 AM 66.9 °F 64.9 °F 93% 29.80 in 4.0 mi SSE 6.9 mph - 0.03 in Rain Light Rain
8:21 AM 66.2 °F 64.4 °F 94% 29.83 in 4.0 mi South 5.8 mph - 0.01 in Rain Light Rain
8:53 AM 68.0 °F 64.9 °F 90% 29.80 in 4.0 mi SSE 6.9 mph - 0.03 in Rain Light Rain
9:41 AM 68.0 °F 66.2 °F 94% 29.82 in 4.0 mi SSE 6.9 mph - 0.02 in Rain Light Rain
9:53 AM 68.0 °F 66.0 °F 93% 29.79 in 4.0 mi SSE 5.8 mph - 0.03 in Rain Light Rain
10:29 AM 68.0 °F 66.2 °F 94% 29.80 in 4.0 mi South 6.9 mph - 0.02 in Rain Light Rain
10:53 AM 68.0 °F 66.0 °F 93% 29.78 in 6.0 mi SSW 6.9 mph - 0.04 in Rain Light Rain
11:08 AM 69.8 °F 66.2 °F 88% 29.78 in 10.0 mi South 6.9 mph - 0.00 in Rain Light Rain
11:19 AM 69.8 °F 66.2 °F 88% 29.79 in 10.0 mi SSW 9.2 mph - 0.00 in   Mostly Cloudy
11:43 AM 69.8 °F 66.2 °F 88% 29.79 in 10.0 mi SW 10.4 mph - 0.00 in   Overcast
11:53 AM 70.0 °F 64.0 °F 81% 29.77 in 10.0 mi SW 10.4 mph - 0.00 in   Mostly Cloudy
12:53 PM 70.0 °F 63.0 °F 78% 29.77 in 10.0 mi WSW 17.3 mph 21.9 mph N/A   Overcast
1:20 PM 66.2 °F 62.6 °F 88% 29.80 in 1.8 mi WSW 12.7 mph - 0.05 in Rain Heavy Rain
1:45 PM 66.2 °F 64.4 °F 94% 29.79 in 2.5 mi WSW 9.2 mph - 0.13 in Rain Light Rain
1:53 PM 69.1 °F 66.0 °F 90% 29.77 in 8.0 mi WSW 9.2 mph - 0.13 in Rain Light Rain
2:53 PM 73.0 °F 66.0 °F 79% 29.76 in 10.0 mi WSW 8.1 mph - 0.00 in   Mostly Cloudy
3:53 PM 75.9 °F 64.9 °F 69% 29.74 in 10.0 mi West 9.2 mph - N/A   Partly Cloudy
4:53 PM 77.0 °F 64.0 °F 64% 29.73 in 10.0 mi SW 4.6 mph - N/A   Partly Cloudy
5:53 PM 77.0 °F 61.0 °F 58% 29.71 in 10.0 mi WSW 10.4 mph - N/A   Mostly Cloudy
6:53 PM 75.0 °F 62.1 °F 64% 29.73 in 10.0 mi SW 10.4 mph - N/A   Mostly Cloudy
7:53 PM 73.0 °F 63.0 °F 71% 29.73 in 10.0 mi SSW 10.4 mph - N/A   Scattered Clouds
8:53 PM 68.0 °F 64.0 °F 87% 29.75 in 10.0 mi South 6.9 mph - 0.04 in   Overcast
9:04 PM 69.8 °F 64.4 °F 83% 29.77 in 10.0 mi WSW 5.8 mph - N/A Thunderstorm Overcast
9:20 PM 69.8 °F 64.4 °F 83% 29.77 in 10.0 mi WSW 3.5 mph - N/A   Overcast
9:53 PM 66.9 °F 64.0 °F 90% 29.75 in 10.0 mi SSW 5.8 mph - N/A   Mostly Cloudy
10:53 PM 66.0 °F 63.0 °F 90% 29.78 in 10.0 mi SW 4.6 mph - N/A   Scattered Clouds
11:53 PM 66.9 °F 63.0 °F 87% 29.78 in 9.0 mi WSW 6.9 mph - N/A   Overcast